| time (UTC) | temp F | wind direction | speed MPH | gust MPH | rain 1hr in | rain 24hr in | rain mn in | humidity % | barometer mb |
| 20260509223029 | 0 | 60 | 2.0 | 9.0 | 0.00 | 0.23 | 0.02 | 1006.6 | |
| 20260509221526 | 0 | 91 | 2.0 | 7.0 | 0.00 | 0.23 | 0.02 | 1006.6 | |
| 20260509220021 | 0 | 55 | 4.0 | 10.0 | 0.00 | 0.23 | 0.02 | 1006.9 | |
| 20260509214514 | 0 | 138 | 2.0 | 8.0 | 0.00 | 0.23 | 0.02 | 1007.0 | |
| 20260509213009 | 0 | 129 | 2.0 | 10.0 | 0.00 | 0.23 | 0.02 | 1006.8 | |
| 20260509211505 | 0 | 129 | 3.0 | 7.0 | 0.00 | 0.23 | 0.02 | 1007.0 | |
| 20260509210104 | 0 | 138 | 2.0 | 8.0 | 0.00 | 0.23 | 0.02 | 1007.1 | |
| 20260509204603 | 0 | 146 | 1.0 | 10.0 | 0.00 | 0.23 | 0.02 | 1007.2 | |
| 20260509203058 | 0 | 160 | 4.0 | 10.0 | 0.00 | 0.23 | 0.02 | 1007.5 | |
| 20260509201547 | 0 | 116 | 3.0 | 10.0 | 0.00 | 0.23 | 0.02 | 1007.5 | |
| 20260509200043 | 65 | 118 | 1.0 | 8.0 | 0.00 | 0.23 | 0.02 | 72 | 1007.7 |
| 20260509194543 | 64 | 134 | 2.0 | 8.0 | 0.00 | 0.23 | 0.02 | 72 | 1008.0 |
| 20260509193038 | 64 | 86 | 2.0 | 9.0 | 0.00 | 0.23 | 0.02 | 75 | 1008.1 |
| 20260509191535 | 63 | 123 | 3.0 | 13.0 | 0.00 | 0.23 | 0.02 | 73 | 1008.1 |
| 20260509190044 | 63 | 92 | 3.0 | 7.0 | 0.00 | 0.23 | 0.02 | 74 | 1008.5 |
| 20260509184532 | 63 | 101 | 5.0 | 12.0 | 0.00 | 0.23 | 0.02 | 75 | 1008.7 |
| 20260509183033 | 62 | 101 | 2.0 | 8.0 | 0.00 | 0.23 | 0.02 | 77 | 1008.7 |
| 20260509181525 | 60 | 124 | 5.0 | 10.0 | 0.00 | 0.23 | 0.02 | 77 | 1008.8 |
| 20260509180022 | 59 | 143 | 1.0 | 7.0 | 0.00 | 0.23 | 0.02 | 81 | 1009.0 |
| 20260509174520 | 59 | 58 | 2.0 | 10.0 | 0.00 | 0.23 | 0.02 | 81 | 1008.9 |
| 20260509173019 | 58 | 145 | 3.0 | 10.0 | 0.00 | 0.23 | 0.02 | 82 | 1008.9 |
| 20260509171516 | 57 | 163 | 2.0 | 7.0 | 0.00 | 0.23 | 0.02 | 84 | 1008.9 |
| 20260509170015 | 57 | 138 | 1.0 | 7.0 | 0.00 | 0.23 | 0.02 | 84 | 1008.8 |
| 20260509164513 | 58 | 120 | 2.0 | 4.0 | 0.00 | 0.23 | 0.02 | 85 | 1008.6 |
| 20260509163010 | 57 | 51 | 2.0 | 6.0 | 0.00 | 0.23 | 0.02 | 87 | 1008.6 |
| 20260509161508 | 56 | 82 | 1.0 | 4.0 | 0.00 | 0.23 | 0.02 | 89 | 1008.6 |
| 20260509160004 | 54 | 141 | 0.0 | 3.0 | 0.00 | 0.23 | 0.02 | 92 | 1008.5 |
| 20260509154600 | 53 | 134 | 1.0 | 3.0 | 0.01 | 0.23 | 0.02 | 92 | 1008.6 |
| 20260509153101 | 53 | 142 | 0.0 | 3.0 | 0.01 | 0.23 | 0.02 | 92 | 1008.5 |
| 20260509151557 | 52 | 133 | 1.0 | 4.0 | 0.02 | 0.23 | 0.02 | 92 | 1008.6 |
| 20260509150056 | 52 | 134 | 0.0 | 3.0 | 0.02 | 0.23 | 0.02 | 92 | 1008.6 |
| 20260509144556 | 52 | 65 | 2.0 | 5.0 | 0.01 | 0.23 | 0.01 | 92 | 1008.4 |
| 20260509143102 | 52 | 158 | 0.0 | 6.0 | 0.01 | 0.23 | 0.01 | 92 | 1008.5 |
| 20260509141553 | 52 | 72 | 0.0 | 7.0 | 0.00 | 0.22 | 0.00 | 92 | 1008.5 |
| 20260509140050 | 52 | 129 | 1.0 | 5.0 | 0.00 | 0.22 | 0.00 | 92 | 1008.6 |
| 20260509134553 | 51 | 127 | 1.0 | 4.0 | 0.00 | 0.22 | 0.00 | 92 | 1008.6 |
| 20260509133057 | 51 | 69 | 1.0 | 5.0 | 0.00 | 0.22 | 0.00 | 92 | 1008.6 |
| 20260509131544 | 51 | 74 | 1.0 | 5.0 | 0.00 | 0.22 | 0.00 | 92 | 1008.8 |
| 20260509130044 | 51 | 63 | 2.0 | 7.0 | 0.00 | 0.22 | 0.00 | 92 | 1008.8 |
| 20260509124538 | 51 | 159 | 0.0 | 4.0 | 0.00 | 0.22 | 0.00 | 92 | 1009.0 |
| 20260509123035 | 50 | 117 | 0.0 | 3.0 | 0.00 | 0.22 | 0.00 | 92 | 1009.0 |
| 20260509121539 | 50 | 65 | 1.0 | 3.0 | 0.00 | 0.22 | 0.00 | 92 | 1009.1 |
| 20260509120036 | 50 | 73 | 1.0 | 3.0 | 0.00 | 0.22 | 0.00 | 92 | 1009.1 |
| 20260509114534 | 0 | 0.0 | 0.0 | 0.00 | 0.22 | 0.00 | 1009.1 | ||
| 20260509113026 | 0 | 0.0 | 0.0 | 0.00 | 0.22 | 0.00 | 1008.9 | ||
| 20260509111521 | 0 | 0.0 | 0.0 | 0.00 | 0.22 | 0.00 | 1008.9 | ||
| 20260509110017 | 0 | 0.0 | 0.0 | 0.00 | 0.22 | 0.00 | 1008.8 | ||
| 20260509104513 | 0 | 0.0 | 0.0 | 0.00 | 0.22 | 0.00 | 1008.7 | ||
| 20260509103008 | 0 | 0.0 | 0.0 | 0.00 | 0.22 | 0.00 | 1008.6 | ||
| 20260509101503 | 0 | 0.0 | 0.0 | 0.00 | 0.22 | 0.00 | 1008.7 | ||
| 20260509100111 | 0 | 0.0 | 0.0 | 0.00 | 0.22 | 0.00 | 1008.7 | ||
| 20260509094557 | 49 | 60 | 1.0 | 4.0 | 0.00 | 0.22 | 0.00 | 91 | 1008.8 |
| 20260509093052 | 50 | 71 | 0.0 | 4.0 | 0.00 | 0.22 | 0.00 | 91 | 1009.0 |
| 20260509091552 | 49 | 75 | 0.0 | 2.0 | 0.00 | 0.22 | 0.00 | 91 | 1009.2 |
| 20260509090049 | 49 | 70 | 1.0 | 3.0 | 0.00 | 0.22 | 0.00 | 91 | 1009.2 |
| 20260509084551 | 49 | 58 | 2.0 | 3.0 | 0.00 | 0.22 | 0.00 | 92 | 1009.3 |
| 20260509083049 | 48 | 104 | 0.0 | 2.0 | 0.00 | 0.22 | 0.00 | 92 | 1009.4 |
| 20260509081545 | 48 | 140 | 0.0 | 0.0 | 0.00 | 0.22 | 0.00 | 92 | 1009.5 |
| 20260509080106 | 49 | 139 | 0.0 | 0.0 | 0.00 | 0.22 | 0.00 | 92 | 1009.6 |
| 20260509074544 | 49 | 140 | 0.0 | 0.0 | 0.00 | 0.22 | 0.00 | 92 | 1009.3 |
| 20260509073135 | 49 | 140 | 0.0 | 3.0 | 0.00 | 0.22 | 0.00 | 92 | 1009.4 |
| 20260509071545 | 49 | 40 | 0.0 | 1.0 | 0.00 | 0.22 | 0.00 | 92 | 1009.3 |
| 20260509070042 | 49 | 40 | 0.0 | 0.0 | 0.00 | 0.22 | 0.00 | 92 | 1009.1 |
| 20260509064547 | 49 | 40 | 0.0 | 1.0 | 0.00 | 0.22 | 0.00 | 92 | 1009.1 |
| 20260509063040 | 49 | 39 | 0.0 | 2.0 | 0.00 | 0.22 | 0.00 | 92 | 1009.3 |
| 20260509061546 | 49 | 257 | 0.0 | 0.0 | 0.00 | 0.22 | 0.00 | 92 | 1009.6 |
| 20260509060035 | 49 | 257 | 0.0 | 0.0 | 0.00 | 0.22 | 0.00 | 92 | 1009.8 |
| 20260509054537 | 49 | 257 | 0.0 | 0.0 | 0.00 | 0.22 | 0.00 | 92 | 1009.8 |
| 20260509053033 | 49 | 257 | 0.0 | 0.0 | 0.00 | 0.22 | 0.00 | 92 | 1010.1 |
| 20260509051529 | 49 | 257 | 0.0 | 0.0 | 0.00 | 0.22 | 0.00 | 92 | 1010.3 |
| 20260509050036 | 49 | 257 | 0.0 | 0.0 | 0.00 | 0.22 | 0.00 | 92 | 1010.4 |
| 20260509044527 | 49 | 257 | 0.0 | 0.0 | 0.00 | 0.22 | 0.00 | 92 | 1010.4 |
| 20260509043039 | 49 | 257 | 0.0 | 0.0 | 0.00 | 0.22 | 0.00 | 92 | 1010.4 |
| 20260509041522 | 49 | 257 | 0.0 | 0.0 | 0.00 | 0.22 | 0.00 | 92 | 1010.7 |
| 20260509040022 | 49 | 257 | 0.0 | 0.0 | 0.00 | 0.22 | 0.00 | 91 | 1010.7 |
| 20260509034520 | 49 | 257 | 0.0 | 0.0 | 0.00 | 0.22 | 0.22 | 91 | 1011.2 |
| 20260509033022 | 49 | 257 | 0.0 | 0.0 | 0.00 | 0.22 | 0.22 | 91 | 1011.4 |
| 20260509031520 | 50 | 257 | 0.0 | 0.0 | 0.00 | 0.22 | 0.22 | 91 | 1011.6 |
| 20260509030020 | 50 | 257 | 0.0 | 0.0 | 0.00 | 0.22 | 0.22 | 90 | 1011.8 |
| 20260509024518 | 50 | 257 | 0.0 | 0.0 | 0.21 | 0.22 | 0.22 | 90 | 1012.0 |
| 20260509023022 | 50 | 257 | 0.0 | 1.0 | 0.21 | 0.22 | 0.22 | 89 | 1012.0 |
| 20260509021521 | 51 | 257 | 0.0 | 1.0 | 0.21 | 0.22 | 0.22 | 88 | 1012.1 |
| 20260509020015 | 51 | 259 | 0.0 | 0.0 | 0.21 | 0.22 | 0.22 | 86 | 1011.9 |
| 20260509014514 | 52 | 259 | 0.0 | 0.0 | 0.00 | 0.27 | 0.01 | 85 | 1011.6 |
| 20260509013035 | 52 | 259 | 0.0 | 2.0 | 0.00 | 0.27 | 0.01 | 84 | 1011.4 |
| 20260509011512 | 52 | 140 | 0.0 | 1.0 | 0.00 | 0.27 | 0.01 | 83 | 1011.1 |
| 20260509010019 | 53 | 139 | 0.0 | 0.0 | 0.00 | 0.27 | 0.01 | 80 | 1010.8 |
| 20260509004527 | 53 | 140 | 0.0 | 0.0 | 0.00 | 0.42 | 0.01 | 79 | 1010.6 |
| 20260509003011 | 53 | 140 | 0.0 | 1.0 | 0.00 | 0.42 | 0.01 | 79 | 1010.2 |
| 20260509001510 | 53 | 139 | 0.0 | 0.0 | 0.00 | 0.42 | 0.01 | 79 | 1010.3 |
| 20260509000009 | 54 | 140 | 0.0 | 1.0 | 0.00 | 0.42 | 0.01 | 78 | 1010.3 |
| 20260508234509 | 54 | 139 | 0.0 | 1.0 | 0.00 | 0.42 | 0.01 | 78 | 1010.2 |
| 20260508233008 | 55 | 139 | 0.0 | 0.0 | 0.00 | 0.42 | 0.01 | 76 | 1010.4 |
| 20260508231507 | 55 | 139 | 0.0 | 1.0 | 0.00 | 0.42 | 0.01 | 75 | 1010.4 |
| 20260508230017 | 55 | 139 | 0.0 | 1.0 | 0.00 | 0.42 | 0.01 | 75 | 1010.6 |
| 20260508224504 | 55 | 140 | 0.0 | 0.0 | 0.00 | 0.42 | 0.01 | 73 | 1010.6 |